Date String (YYYY-MM-DD hh:mm:ss) UTC,Instrument flags,Ambient pressure (hPa),Sample flow (lpm),Bypass flow (lpm),Sample temperature (°C),Ambient temperature (°C),ASC tube jacket temperature (°C),LED temperature (°C),Box temperature (°C),Sample RH (%),Span deviation,Mass concentration (μg/m³),Mass concentration (μg/m³),Mass concentration (μg/m³)
DateTimeUTC,F1_M11,P_M11,Q1_M11,Q2_M11,T1_M11,T2_M11,T3_M11,T4_M11,T5_M11,U1_M11,ZSPAN_M11,X0_M11,X2_M11,X1_M11
2022-12-16 09:00:00,,0821.9,5.04,0.00,22.0,20.7,00.0,30.8,23.7,03.6,0000.0,0001.40,0001.01,0000.86
2022-12-16 09:01:00,,0822.0,4.97,0.00,22.0,20.5,00.0,30.8,23.7,03.6,0000.0,0001.37,0001.00,0000.87
2022-12-16 09:02:00,,0822.0,5.03,0.00,22.0,20.4,00.0,30.8,23.6,03.6,0000.0,0001.41,0001.01,0000.87
2022-12-16 09:03:00,,0822.0,4.97,0.00,21.9,20.3,00.0,30.8,23.6,03.6,0000.0,0001.43,0001.03,0000.88
2022-12-16 09:04:00,,0821.9,5.04,0.00,21.9,20.3,00.0,30.8,23.6,03.6,0000.0,0001.42,0001.03,0000.89
2022-12-16 09:05:00,,0822.0,4.97,0.00,21.9,21.1,00.0,30.7,23.8,03.6,0000.0,0001.44,0001.03,0000.89
2022-12-16 09:06:00,,0822.1,4.99,0.00,22.1,22.0,00.0,30.7,24.0,03.6,0000.0,0001.56,0001.04,0000.89
2022-12-16 09:07:00,,0822.0,5.04,0.00,22.1,22.0,00.0,30.8,24.0,03.6,0000.0,0001.62,0001.06,0000.89
2022-12-16 09:08:00,,0822.0,4.95,0.00,22.1,21.6,00.0,30.8,24.0,03.6,0000.0,0001.73,0001.05,0000.89
2022-12-16 09:09:00,,0822.1,5.03,0.00,22.1,21.2,00.0,30.9,23.9,03.6,0000.0,0001.81,0001.07,0000.90
2022-12-16 09:10:00,,0822.0,4.98,0.00,22.0,20.8,00.0,30.9,23.8,03.6,0000.0,0001.84,0001.08,0000.91
2022-12-16 09:11:00,,0822.1,4.97,0.00,22.0,20.5,00.0,30.8,23.7,03.6,0000.0,0001.89,0001.09,0000.91
2022-12-16 09:12:00,,0822.1,5.05,0.00,22.0,20.3,00.0,30.8,23.6,03.6,0000.0,0001.96,0001.07,0000.90
2022-12-16 09:13:00,,0822.1,4.97,0.00,21.9,20.3,00.0,30.8,23.6,03.6,0000.0,0001.90,0001.06,0000.90
2022-12-16 09:14:00,,0822.1,5.03,0.00,21.9,20.3,00.0,30.8,23.6,03.6,0000.0,0001.88,0001.06,0000.91
2022-12-16 09:15:00,,0822.1,4.97,0.00,21.9,20.3,00.0,30.8,23.6,03.6,0000.0,0001.89,0001.05,0000.90
2022-12-16 09:16:00,,0822.1,5.00,0.00,21.9,20.5,00.0,30.8,23.6,03.6,0000.0,0001.88,0001.06,0000.90
2022-12-16 09:17:00,,0822.1,4.99,0.00,22.0,21.5,00.0,30.7,23.8,03.6,0000.0,0001.78,0001.07,0000.92
2022-12-16 09:18:00,,0822.1,5.00,0.00,22.1,22.3,00.0,30.8,24.1,03.5,0000.0,0001.73,0001.05,0000.92
2022-12-16 09:19:00,,0822.1,5.00,0.00,22.1,22.0,00.0,30.8,24.1,03.5,0000.0,0001.65,0001.05,0000.93
2022-12-16 09:20:00,,0822.1,5.01,0.00,22.1,21.7,00.0,30.9,24.0,03.5,0000.0,0001.54,0001.04,0000.94
2022-12-16 09:21:00,,0822.1,5.00,0.00,22.1,21.3,00.0,30.9,23.9,03.6,0000.0,0001.46,0001.03,0000.94
2022-12-16 09:22:00,,0822.1,4.97,0.00,22.1,21.1,00.0,30.9,23.9,03.6,0000.0,0001.42,0001.01,0000.94
2022-12-16 09:23:00,,0822.1,5.03,0.00,22.1,20.9,00.0,30.9,23.8,03.5,0000.0,0001.32,0001.02,0000.95
2022-12-16 09:24:00,,0822.1,4.97,0.00,22.1,20.7,00.0,30.9,23.8,03.4,0000.0,0001.34,0001.04,0000.96
2022-12-16 09:25:00,,0822.1,5.04,0.00,22.0,20.6,00.0,30.9,23.8,03.3,0000.0,0001.35,0001.04,0000.97
2022-12-16 09:26:00,,0822.2,4.97,0.00,22.0,20.5,00.0,30.9,23.7,03.3,0000.0,0001.33,0001.04,0000.98
2022-12-16 09:27:00,,0822.2,4.98,0.00,22.0,20.4,00.0,30.9,23.7,03.3,0000.0,0001.31,0001.04,0000.98
2022-12-16 09:28:00,,0822.2,5.02,0.00,22.0,20.4,00.0,30.9,23.7,03.4,0000.0,0001.35,0001.06,0000.97
2022-12-16 09:29:00,,0822.2,4.99,0.00,22.0,21.2,00.0,30.8,23.9,03.4,0000.0,0001.39,0001.08,0000.97
2022-12-16 09:30:00,,0822.3,5.00,0.00,22.1,22.2,00.0,30.8,24.1,03.5,0000.0,0001.40,0001.09,0000.97
2022-12-16 09:31:00,,0822.3,5.00,0.00,22.2,22.1,00.0,30.9,24.1,03.4,0000.0,0001.39,0001.09,0000.97
2022-12-16 09:32:00,,0822.2,4.99,0.00,22.2,21.7,00.0,30.9,24.1,03.3,0000.0,0001.48,0001.12,0000.98
2022-12-16 09:33:00,,0822.2,5.03,0.00,22.2,21.4,00.0,30.9,24.0,03.3,0000.0,0001.63,0001.15,0000.98
2022-12-16 09:34:00,,0822.2,4.98,0.00,22.2,21.1,00.0,30.9,23.9,03.4,0000.0,0001.67,0001.17,0000.98
2022-12-16 09:35:00,,0822.2,4.98,0.00,22.1,20.9,00.0,30.9,23.9,03.4,0000.0,0001.64,0001.16,0000.98
2022-12-16 09:36:00,,0822.2,5.04,0.00,22.1,20.7,00.0,30.9,23.8,03.5,0000.0,0001.65,0001.17,0000.98
2022-12-16 09:37:00,,0822.2,4.97,0.00,22.1,20.6,00.0,30.9,23.8,03.7,0000.0,0001.70,0001.17,0000.98
2022-12-16 09:38:00,,0822.1,5.03,0.00,22.0,20.5,00.0,30.9,23.8,03.8,0000.0,0001.97,0001.17,0000.98
2022-12-16 09:39:00,,0822.1,4.97,0.00,22.0,20.4,00.0,30.9,23.7,03.4,0000.0,0002.05,0001.15,0000.99
2022-12-16 09:40:00,,0822.1,5.04,0.00,22.0,20.3,00.0,30.9,23.7,03.4,0000.0,0002.06,0001.17,0001.00
2022-12-16 09:41:00,,0822.1,4.98,0.00,22.0,20.9,00.0,30.9,23.8,03.6,0000.0,0002.10,0001.18,0001.01
2022-12-16 09:42:00,,0822.1,5.00,0.00,22.1,22.0,00.0,30.8,24.1,03.5,0000.0,0002.19,0001.20,0001.01
2022-12-16 09:43:00,,0822.1,5.00,0.00,22.2,22.3,00.0,30.9,24.2,03.7,0000.0,0002.18,0001.19,0001.00
2022-12-16 09:44:00,,0822.1,4.99,0.00,22.2,21.9,00.0,30.9,24.1,04.0,0000.0,0002.05,0001.16,0000.99
2022-12-16 09:45:00,,0822.1,5.03,0.00,22.2,21.5,00.0,31.0,24.0,03.7,0000.0,0001.99,0001.13,0000.98
2022-12-16 09:46:00,,0822.1,4.98,0.00,22.2,21.2,00.0,31.0,24.0,03.5,0000.0,0002.02,0001.15,0000.99
2022-12-16 09:47:00,,0822.1,4.97,0.00,22.1,20.9,00.0,31.0,23.9,03.6,0000.0,0002.06,0001.16,0000.98
2022-12-16 09:48:00,,0822.1,5.05,0.00,22.1,20.8,00.0,31.0,23.8,03.9,0000.0,0002.00,0001.15,0000.98
2022-12-16 09:49:00,,0822.1,4.97,0.00,22.1,20.6,00.0,31.0,23.8,03.8,0000.0,0001.75,0001.16,0000.99
2022-12-16 09:50:00,,0822.1,5.05,0.00,22.0,20.5,00.0,31.0,23.7,03.7,0000.0,0001.61,0001.14,0000.99
2022-12-16 09:51:00,,0822.1,4.97,0.00,22.0,20.4,00.0,30.9,23.7,03.6,0000.0,0001.55,0001.11,0000.98
2022-12-16 09:52:00,,0822.1,5.02,0.00,22.0,20.7,00.0,30.9,23.7,03.8,0000.0,0001.53,0001.11,0000.98
2022-12-16 09:53:00,,0822.1,4.96,0.00,22.1,21.8,00.0,30.9,24.0,03.7,0000.0,0001.47,0001.10,0000.97
2022-12-16 09:54:00,,0822.1,4.99,0.00,22.2,22.4,00.0,30.9,24.2,03.7,0000.0,0001.47,0001.10,0000.98
2022-12-16 09:55:00,,0822.1,5.05,0.00,22.2,21.9,00.0,30.9,24.1,03.9,0000.0,0001.42,0001.10,0000.99
2022-12-16 09:56:00,,0822.1,4.95,0.00,22.2,21.5,00.0,31.0,24.0,03.8,0000.0,0001.41,0001.09,0000.99
2022-12-16 09:57:00,,0822.1,5.05,0.00,22.2,21.1,00.0,31.0,23.9,03.8,0000.0,0001.43,0001.09,0000.98
2022-12-16 09:58:00,,0822.1,4.97,0.00,22.1,20.9,00.0,31.0,23.9,03.8,0000.0,0001.44,0001.07,0000.98
2022-12-16 09:59:00,,0822.1,4.97,0.00,22.1,20.7,00.0,31.0,23.8,03.7,0000.0,0001.78,0001.06,0000.97
